SV7RNH Weather Reports


Display with metric or nautical units.
time (UTC)temp
F
wind
direction
speed
MPH
gust
MPH
rain 1hr
in
rain 24hr
in
rain mn
in
humidity
%
barometer
mb
20260508153503 63 0 0.0 2.0 0.02 0.08 0.08 75 1016.7
20260508153003 63 0 0.0 2.0 0.02 0.08 0.08 75 1016.7
20260508152504 63 0 0.0 2.0 0.01 0.07 0.07 75 1016.7
20260508152004 63 0 0.0 3.0 0.01 0.07 0.07 74 1016.7
20260508151503 63 0 0.0 4.0 0.01 0.07 0.07 74 1016.7
20260508151003 64 0 0.0 4.0 0.00 0.06 0.06 74 1016.5
20260508150504 64 194 1.0 3.0 0.00 0.06 0.06 74 1016.8
20260508150004 64 53 1.0 4.0 0.00 0.06 0.06 73 1016.7
20260508145503 64 318 1.0 4.0 0.00 0.06 0.06 73 1016.6
20260508145003 64 0 0.0 3.0 0.00 0.06 0.06 73 1016.7
20260508144503 64 0 0.0 3.0 0.00 0.06 0.06 72 1017.2
20260508144004 64 0 0.0 4.0 0.00 0.06 0.06 72 1016.9
20260508143503 64 202 1.0 4.0 0.00 0.06 0.06 72 1016.8
20260508143004 64 0 0.0 4.0 0.00 0.06 0.06 71 1016.8
20260508142504 64 301 1.0 4.0 0.00 0.06 0.06 71 1016.9
20260508142003 64 245 1.0 4.0 0.00 0.06 0.06 71 1017.1
20260508141503 64 239 1.0 4.0 0.00 0.06 0.06 71 1016.9
20260508141004 64 0 0.0 4.0 0.00 0.06 0.06 71 1016.7
20260508140504 64 216 1.0 4.0 0.00 0.06 0.06 71 1016.7
20260508140004 64 205 1.0 5.0 0.00 0.06 0.06 71 1016.9
20260508135503 64 0 0.0 5.0 0.00 0.06 0.06 71 1016.9
20260508135003 64 192 1.0 4.0 0.00 0.06 0.06 71 1017.0
20260508134504 64 0 0.0 4.0 0.00 0.06 0.06 72 1017.1
20260508134003 65 230 1.0 4.0 0.00 0.06 0.06 72 1017.2
20260508133503 65 228 1.0 4.0 0.00 0.06 0.06 71 1017.2
20260508133003 65 298 2.0 3.0 0.00 0.06 0.06 71 1017.2
20260508132504 65 339 1.0 4.0 0.00 0.06 0.06 71 1017.2
20260508132003 65 0 0.0 4.0 0.00 0.06 0.06 71 1017.3
20260508131503 65 0 0.0 4.0 0.00 0.06 0.06 71 1017.4
20260508131003 65 261 1.0 4.0 0.00 0.06 0.06 71 1017.5
20260508130504 65 0 0.0 4.0 0.00 0.06 0.06 71 1017.5
20260508130004 65 0 0.0 3.0 0.00 0.06 0.06 71 1017.5
20260508125503 65 228 1.0 4.0 0.00 0.06 0.06 72 1017.5
20260508125003 65 0 0.0 4.0 0.00 0.06 0.06 72 1017.7
20260508124504 65 267 1.0 4.0 0.01 0.06 0.06 72 1017.7
20260508124004 65 0 0.0 5.0 0.01 0.06 0.06 73 1017.7
20260508123503 65 273 2.0 5.0 0.01 0.06 0.06 73 1017.7
20260508123003 65 0 0.0 3.0 0.01 0.06 0.06 74 1017.7
20260508122504 64 184 1.0 3.0 0.02 0.06 0.06 74 1017.9
20260508122004 64 0 0.0 3.0 0.02 0.06 0.06 74 1017.8
20260508121503 64 0 0.0 3.0 0.02 0.06 0.06 75 1017.9
20260508121003 64 0 0.0 3.0 0.02 0.06 0.06 75 1018.0
20260508120503 64 161 2.0 4.0 0.02 0.06 0.06 75 1018.1
20260508120004 64 142 1.0 4.0 0.02 0.06 0.06 75 1018.2
20260508115503 65 0 0.0 2.0 0.02 0.06 0.06 75 1018.3
20260508115004 65 0 0.0 2.0 0.02 0.06 0.06 75 1018.3
20260508114503 65 135 1.0 3.0 0.02 0.05 0.05 74 1018.4
20260508114003 65 0 0.0 3.0 0.02 0.05 0.05 74 1018.5
20260508113503 65 135 1.0 3.0 0.02 0.05 0.05 73 1018.5
20260508113004 66 135 1.0 3.0 0.02 0.05 0.05 73 1018.6
20260508112503 66 0 0.0 2.0 0.01 0.04 0.04 73 1018.7
20260508112003 66 0 0.0 2.0 0.01 0.04 0.04 73 1018.7
20260508111504 66 0 0.0 3.0 0.01 0.04 0.04 72 1018.8
20260508111003 66 0 0.0 3.0 0.01 0.04 0.04 72 1018.8
20260508110503 66 135 2.0 4.0 0.02 0.04 0.04 72 1018.9
20260508110004 65 0 0.0 4.0 0.02 0.04 0.04 71 1019.0
20260508105504 65 135 1.0 4.0 0.02 0.04 0.04 71 1019.1
20260508105003 65 135 2.0 4.0 0.02 0.04 0.04 71 1019.2
20260508104503 66 135 2.0 4.0 0.02 0.02 0.02 71 1019.2
20260508104004 66 135 2.0 4.0 0.02 0.02 0.02 71 1019.3
20260508103504 66 0 0.0 4.0 0.02 0.02 0.02 71 1019.4
20260508103003 66 138 2.0 4.0 0.02 0.02 0.02 70 1019.3
20260508102503 67 150 2.0 4.0 0.02 0.02 0.02 70 1019.3
20260508102004 67 0 0.0 2.0 0.02 0.02 0.02 71 1019.4
20260508101504 66 0 0.0 2.0 0.02 0.02 0.02 70 1019.4
20260508101003 66 181 1.0 2.0 0.02 0.02 0.02 70 1019.5
20260508100503 67 0 0.0 2.0 0.01 0.01 0.01 70 1019.7
20260508100004 67 0 0.0 3.0 0.01 0.01 0.01 70 1019.8
20260508095503 67 172 1.0 3.0 0.01 0.01 0.01 70 1019.9
20260508095003 67 220 1.0 4.0 0.01 0.01 0.01 69 1020.1
20260508094503 67 242 1.0 4.0 0.00 0.00 0.00 69 1020.1
20260508094004 67 248 2.0 4.0 0.00 0.00 0.00 68 1020.2
20260508093503 67 234 1.0 4.0 0.00 0.00 0.00 66 1020.2
20260508093003 67 67 1.0 4.0 0.00 0.00 0.00 65 1020.1
20260508092503 67 0 0.0 4.0 0.00 0.00 0.00 64 1020.1
20260508092003 67 226 1.0 4.0 0.00 0.00 0.00 63 1020.1
20260508091504 68 0 0.0 4.0 0.00 0.00 0.00 62 1020.0
20260508091003 69 157 1.0 4.0 0.00 0.00 0.00 61 1019.9
20260508090503 69 161 1.0 4.0 0.00 0.00 0.00 59 1019.6
20260508090004 69 205 2.0 4.0 0.00 0.00 0.00 58 1019.7
20260508085504 69 0 0.0 4.0 0.00 0.00 0.00 58 1019.4
20260508085003 69 225 2.0 4.0 0.00 0.00 0.00 58 1019.2
20260508084503 69 0 0.0 3.0 0.00 0.00 0.00 58 1019.3
20260508084003 69 225 1.0 3.0 0.00 0.00 0.00 58 1019.2
20260508083504 69 225 1.0 4.0 0.00 0.00 0.00 58 1019.2
20260508083003 69 225 2.0 4.0 0.00 0.00 0.00 57 1019.2
20260508082503 69 225 2.0 4.0 0.00 0.00 0.00 57 1019.2
20260508082003 70 225 2.0 4.0 0.00 0.00 0.00 57 1019.1
20260508081504 71 0 0.0 4.0 0.00 0.00 0.00 57 1019.1
20260508081004 71 190 2.0 3.0 0.00 0.00 0.00 57 1018.9
20260508080503 71 0 0.0 2.0 0.00 0.00 0.00 58 1018.7
20260508080003 71 90 1.0 3.0 0.00 0.00 0.00 58 1018.6
20260508075503 70 0 0.0 3.0 0.00 0.00 0.00 60 1018.5
20260508075004 70 0 0.0 2.0 0.00 0.00 0.00 61 1018.4
20260508074503 70 0 0.0 2.0 0.00 0.00 0.00 62 1018.4
20260508074003 69 0 0.0 2.0 0.00 0.00 0.00 63 1018.5
20260508073503 69 0 0.0 3.0 0.00 0.00 0.00 65 1018.5
20260508073003 68 0 0.0 3.0 0.00 0.00 0.00 65 1018.5
20260508072503 67 0 0.0 4.0 0.00 0.00 0.00 65 1018.5
20260508072004 67 0 0.0 6.0 0.00 0.00 0.00 65 1018.7
20260508071503 66 135 2.0 6.0 0.00 0.00 0.00 65 1018.9
20260508071003 67 135 3.0 6.0 0.00 0.00 0.00 65 1019.1
20260508070503 67 0 0.0 4.0 0.00 0.00 0.00 66 1019.1
20260508070004 66 135 2.0 4.0 0.00 0.00 0.00 66 1019.0
20260508065504 66 135 2.0 4.0 0.00 0.00 0.00 67 1019.1
20260508065003 66 140 1.0 4.0 0.00 0.00 0.00 67 1019.0
20260508064503 66 218 1.0 4.0 0.00 0.00 0.00 67 1019.0
20260508064004 66 252 1.0 4.0 0.00 0.00 0.00 68 1018.9
20260508063503 66 228 2.0 5.0 0.00 0.00 0.00 68 1018.9
20260508063003 66 234 2.0 5.0 0.00 0.00 0.00 67 1018.8
20260508062503 66 256 2.0 4.0 0.00 0.00 0.00 67 1018.8
20260508062003 66 225 1.0 3.0 0.00 0.00 0.00 67 1018.6
20260508061504 66 0 0.0 3.0 0.00 0.00 0.00 67 1018.5
20260508061003 66 225 1.0 2.0 0.00 0.00 0.00 67 1018.5
20260508060503 66 225 1.0 2.0 0.00 0.00 0.00 67 1018.4
20260508060004 66 225 1.0 2.0 0.00 0.00 0.00 67 1018.4
20260508055503 65 0 0.0 2.0 0.00 0.00 0.00 67 1018.1
20260508055004 65 0 0.0 1.0 0.00 0.00 0.00 67 1018.1
20260508054503 65 0 0.0 1.0 0.00 0.00 0.00 67 1018.0
20260508054003 65 0 0.0 2.0 0.00 0.00 0.00 67 1017.9
20260508053503 65 0 0.0 2.0 0.00 0.00 0.00 67 1017.9
20260508053004 65 0 0.0 2.0 0.00 0.00 0.00 67 1017.9
20260508052503 65 0 0.0 2.0 0.00 0.00 0.00 68 1017.8
20260508052003 65 0 0.0 1.0 0.00 0.00 0.00 68 1017.8
20260508051503 64 0 0.0 1.0 0.00 0.00 0.00 68 1017.9
20260508051004 64 0 0.0 1.0 0.00 0.00 0.00 68 1017.8
20260508050504 64 0 0.0 0.0 0.00 0.00 0.00 68 1017.9
20260508050003 64 0 0.0 0.0 0.00 0.00 0.00 69 1017.8
20260508045503 64 0 0.0 0.0 0.00 0.00 0.00 69 1017.8
20260508045003 64 0 0.0 0.0 0.00 0.00 0.00 69 1017.8
20260508044504 63 0 0.0 2.0 0.00 0.00 0.00 69 1017.7
20260508044003 63 0 0.0 2.0 0.00 0.00 0.00 69 1017.7
20260508043503 63 0 0.0 2.0 0.00 0.00 0.00 70 1017.6
20260508043004 63 0 0.0 2.0 0.00 0.00 0.00 70 1017.5
20260508042504 63 0 0.0 2.0 0.00 0.00 0.00 70 1017.5
20260508042003 63 0 0.0 2.0 0.00 0.00 0.00 70 1017.3
20260508041504 62 0 0.0 2.0 0.00 0.00 0.00 70 1017.3
20260508041003 62 0 0.0 2.0 0.00 0.00 0.00 69 1017.4
20260508040503 62 0 0.0 2.0 0.00 0.00 0.00 69 1017.5
20260508040004 62 0 0.0 3.0 0.00 0.00 0.00 69 1017.4
20260508035503 62 0 0.0 3.0 0.00 0.00 0.00 69 1017.5
20260508035003 62 0 0.0 1.0 0.00 0.00 0.00 69 1017.5
20260508034503 62 0 0.0 1.0 0.00 0.00 0.00 69 1017.6
20260508034004 62 0 0.0 0.0 0.00 0.00 0.00 69 1017.8
20260508033503 62 0 0.0 0.0 0.00 0.00 0.00 69 1017.9
20260508033003 62 0 0.0 2.0 0.00 0.00 0.00 69 1017.9
20260508032503 62 0 0.0 2.0 0.00 0.00 0.00 69 1017.8
20260508032004 62 0 0.0 2.0 0.00 0.00 0.00 69 1017.8
20260508031503 62 0 0.0 2.0 0.00 0.00 0.00 69 1017.7
20260508031003 62 0 0.0 0.0 0.00 0.00 0.00 68 1017.6
20260508030504 62 0 0.0 0.0 0.00 0.00 0.00 68 1017.5
20260508030004 62 0 0.0 1.0 0.00 0.00 0.00 68 1017.5
20260508025503 62 0 0.0 2.0 0.00 0.00 0.00 68 1017.5
20260508025003 62 0 0.0 2.0 0.00 0.00 0.00 68 1017.5
20260508024504 62 0 0.0 2.0 0.00 0.00 0.00 68 1017.5
20260508024004 62 225 1.0 2.0 0.00 0.00 0.00 68 1017.4
20260508023503 62 0 0.0 2.0 0.00 0.00 0.00 68 1017.4
20260508023003 62 0 0.0 2.0 0.00 0.00 0.00 68 1017.3
20260508022504 62 0 0.0 0.0 0.00 0.00 0.00 67 1017.3
20260508022003 62 0 0.0 1.0 0.00 0.00 0.00 67 1017.3
20260508021503 62 0 0.0 1.0 0.00 0.00 0.00 67 1017.2
20260508021003 62 0 0.0 1.0 0.00 0.00 0.00 67 1017.2
20260508020504 62 0 0.0 0.0 0.00 0.00 0.00 67 1017.3
20260508020004 62 0 0.0 1.0 0.00 0.00 0.00 66 1017.2
20260508015503 62 0 0.0 1.0 0.00 0.00 0.00 66 1017.2
20260508015004 62 0 0.0 1.0 0.00 0.00 0.00 66 1017.2
20260508014503 63 0 0.0 2.0 0.00 0.00 0.00 66 1017.2
20260508014004 63 0 0.0 2.0 0.00 0.00 0.00 66 1017.2
20260508013504 63 0 0.0 2.0 0.00 0.00 0.00 66 1017.2
20260508013003 63 0 0.0 2.0 0.00 0.00 0.00 66 1017.3
20260508012503 63 0 0.0 2.0 0.00 0.00 0.00 66 1017.3
20260508012004 63 0 0.0 2.0 0.00 0.00 0.00 65 1017.4
20260508011503 63 0 0.0 2.0 0.00 0.00 0.00 65 1017.6
20260508011003 63 0 0.0 2.0 0.00 0.00 0.00 65 1017.7
20260508010503 63 0 0.0 3.0 0.00 0.00 0.00 64 1017.7
20260508010004 63 0 0.0 3.0 0.00 0.00 0.00 64 1017.7
20260508005503 63 0 0.0 3.0 0.00 0.00 0.00 64 1017.8
20260508005003 63 0 0.0 4.0 0.00 0.00 0.00 64 1017.7
20260508004503 63 225 1.0 4.0 0.00 0.00 0.00 64 1017.8
20260508004004 63 225 1.0 2.0 0.00 0.00 0.00 64 1017.9
20260508003503 63 0 0.0 2.0 0.00 0.00 0.00 64 1018.0
20260508003003 63 0 0.0 2.0 0.00 0.00 0.00 64 1017.9
20260508002504 63 0 0.0 2.0 0.00 0.00 0.00 64 1017.9
20260508002004 63 0 0.0 2.0 0.00 0.00 0.00 64 1018.0
20260508001503 63 0 0.0 2.0 0.00 0.00 0.00 64 1018.2
20260508001003 63 0 0.0 2.0 0.00 0.00 0.00 64 1018.2
20260508000504 63 0 0.0 2.0 0.00 0.00 0.00 64 1018.2
20260508000004 63 0 0.0 2.0 0.00 0.00 0.00 64 1018.3
20260507235503 63 0 0.0 2.0 0.00 0.00 0.00 64 1018.3
20260507235003 63 0 0.0 2.0 0.00 0.00 0.00 64 1018.3
20260507234504 63 0 0.0 2.0 0.00 0.00 0.00 64 1018.3
20260507234004 63 0 0.0 2.0 0.00 0.00 0.00 64 1018.2
20260507233504 63 0 0.0 2.0 0.00 0.00 0.00 64 1018.2
20260507233004 63 0 0.0 2.0 0.00 0.00 0.00 64 1018.3
20260507232503 63 0 0.0 2.0 0.00 0.00 0.00 64 1018.4
20260507232003 63 0 0.0 2.0 0.00 0.00 0.00 64 1018.5
20260507231504 64 0 0.0 2.0 0.00 0.00 0.00 64 1018.5
20260507231003 63 36 1.0 2.0 0.00 0.00 0.00 63 1018.5
20260507230503 64 0 0.0 2.0 0.00 0.00 0.00 63 1018.6
20260507230003 64 0 0.0 4.0 0.00 0.00 0.00 63 1018.5
20260507225504 64 10 1.0 4.0 0.00 0.00 0.00 63 1018.7
20260507225003 64 0 0.0 2.0 0.00 0.00 0.00 63 1018.7
20260507224504 64 0 0.0 2.0 0.00 0.00 0.00 63 1018.7
20260507224003 64 0 0.0 1.0 0.00 0.00 0.00 63 1018.8
20260507223504 64 0 0.0 2.0 0.00 0.00 0.00 62 1019.0
20260507223003 64 0 0.0 2.0 0.00 0.00 0.00 62 1018.9
20260507222503 64 0 0.0 2.0 0.00 0.00 0.00 62 1018.9
20260507222003 64 0 0.0 2.0 0.00 0.00 0.00 62 1019.0
20260507221504 64 0 0.0 3.0 0.00 0.00 0.00 62 1019.0
20260507221003 64 0 0.0 3.0 0.00 0.00 0.00 62 1018.9
20260507220503 64 42 2.0 3.0 0.00 0.00 0.00 62 1018.9
20260507220003 64 23 2.0 3.0 0.00 0.00 0.00 62 1018.8
20260507215504 65 0 0.0 3.0 0.00 0.00 0.00 62 1018.9
20260507215003 65 0 0.0 3.0 0.00 0.00 0.00 61 1018.9
20260507214503 65 0 0.0 3.0 0.00 0.00 0.00 61 1018.9
20260507214003 65 0 0.0 3.0 0.00 0.00 0.00 61 1018.8
20260507213504 65 0 0.0 2.0 0.00 0.00 0.00 61 1018.7
20260507213003 65 0 0.0 3.0 0.00 0.00 0.00 61 1018.8
20260507212503 65 23 1.0 3.0 0.00 0.00 0.00 61 1018.8
20260507212003 65 0 0.0 4.0 0.00 0.00 0.00 61 1018.8
20260507211504 65 0 0.0 4.0 0.00 0.00 0.00 61 1018.8
20260507211003 65 43 2.0 4.0 0.00 0.00 0.00 61 1018.8
20260507210503 65 0 0.0 4.0 0.00 0.00 0.00 61 1018.7
20260507210004 65 0 0.0 3.0 0.00 0.00 0.00 60 1018.7
20260507205503 65 0 0.0 3.0 0.00 0.00 0.00 60 1018.7
20260507205003 65 0 0.0 3.0 0.00 0.00 0.00 60 1018.7
20260507204504 65 0 0.0 2.0 0.00 0.00 0.00 60 1018.7
20260507204003 65 0 0.0 2.0 0.00 0.00 0.00 60 1018.7
20260507203503 66 0 0.0 2.0 0.00 0.00 0.00 60 1018.7
20260507203003 66 0 0.0 2.0 0.00 0.00 0.00 60 1018.7
20260507202504 66 0 0.0 2.0 0.00 0.00 0.00 59 1018.7
20260507202004 66 0 0.0 3.0 0.00 0.00 0.00 59 1018.7
20260507201503 66 0 0.0 4.0 0.00 0.00 0.00 59 1018.7
20260507201004 66 32 2.0 4.0 0.00 0.00 0.00 58 1018.7
20260507200503 66 0 0.0 3.0 0.00 0.00 0.00 58 1018.7
20260507200003 66 0 0.0 2.0 0.00 0.00 0.00 58 1018.7
20260507195503 67 0 0.0 2.0 0.00 0.00 0.00 58 1018.7
20260507195004 67 0 0.0 2.0 0.00 0.00 0.00 58 1018.7
20260507194503 67 162 2.0 2.0 0.00 0.00 0.00 58 1018.7
20260507194003 67 0 0.0 2.0 0.00 0.00 0.00 57 1018.8
20260507193503 67 0 0.0 2.0 0.00 0.00 0.00 57 1018.7
20260507193004 67 0 0.0 2.0 0.00 0.00 0.00 57 1018.7
20260507192504 68 0 0.0 2.0 0.00 0.00 0.00 56 1018.7
20260507192003 68 0 0.0 2.0 0.00 0.00 0.00 56 1018.6
20260507191503 68 0 0.0 2.0 0.00 0.00 0.00 55 1018.7
20260507191004 68 181 1.0 2.0 0.00 0.00 0.00 55 1018.7
20260507190504 68 0 0.0 2.0 0.00 0.00 0.00 55 1018.6
20260507190004 68 0 0.0 0.0 0.00 0.00 0.00 55 1018.7
20260507185504 68 0 0.0 0.0 0.00 0.00 0.00 55 1018.7
20260507185004 68 0 0.0 1.0 0.00 0.00 0.00 55 1018.5
20260507184504 68 0 0.0 2.0 0.00 0.00 0.00 54 1018.6
20260507184003 68 0 0.0 2.0 0.00 0.00 0.00 54 1018.5
20260507183504 68 0 0.0 2.0 0.00 0.00 0.00 54 1018.6
20260507183003 68 0 0.0 0.0 0.00 0.00 0.00 54 1018.4
20260507182503 68 0 0.0 0.0 0.00 0.00 0.00 53 1018.6
20260507182003 68 0 0.0 0.0 0.00 0.00 0.00 53 1018.4
20260507181504 68 0 0.0 0.0 0.00 0.00 0.00 53 1018.4
20260507181003 69 0 0.0 0.0 0.00 0.00 0.00 52 1018.3
20260507180503 69 0 0.0 2.0 0.00 0.00 0.00 52 1018.4
20260507180003 69 0 0.0 2.0 0.00 0.00 0.00 52 1018.2
20260507175504 69 0 0.0 2.0 0.00 0.00 0.00 52 1018.3
20260507175003 69 0 0.0 2.0 0.00 0.00 0.00 52 1018.4
20260507174503 69 0 0.0 3.0 0.00 0.00 0.00 51 1018.5
20260507174004 69 0 0.0 3.0 0.00 0.00 0.00 51 1018.5
20260507173503 70 181 1.0 4.0 0.00 0.00 0.00 50 1018.3
20260507173003 70 0 0.0 4.0 0.00 0.00 0.00 50 1018.1
20260507172503 70 147 1.0 4.0 0.00 0.00 0.00 50 1017.7
20260507172004 70 123 2.0 3.0 0.00 0.00 0.00 50 1017.6
20260507171503 70 0 0.0 4.0 0.00 0.00 0.00 51 1017.8
20260507171003 70 122 1.0 4.0 0.00 0.00 0.00 52 1018.0
20260507170504 70 52 2.0 5.0 0.00 0.00 0.00 52 1018.2
20260507170004 70 113 2.0 5.0 0.00 0.00 0.00 52 1018.2
20260507165503 70 156 2.0 5.0 0.00 0.00 0.00 52 1018.2
20260507165003 70 156 2.0 4.0 0.00 0.00 0.00 52 1018.4
20260507164504 70 142 2.0 5.0 0.00 0.00 0.00 52 1018.4
20260507164003 70 135 2.0 5.0 0.00 0.00 0.00 53 1018.4
20260507163503 70 135 2.0 4.0 0.00 0.00 0.00 52 1018.4
20260507163003 71 135 2.0 4.0 0.00 0.00 0.00 51 1018.3
20260507162504 71 135 2.0 4.0 0.00 0.00 0.00 50 1018.4
20260507162003 71 128 2.0 4.0 0.00 0.00 0.00 49 1018.6
20260507161503 71 130 2.0 6.0 0.00 0.00 0.00 48 1018.6
20260507161003 72 147 2.0 6.0 0.00 0.00 0.00 46 1018.6
20260507160503 72 147 2.0 5.0 0.00 0.00 0.00 46 1018.5
20260507160003 72 142 2.0 5.0 0.00 0.00 0.00 44 1018.6
20260507155504 72 156 2.0 5.0 0.00 0.00 0.00 43 1018.3
20260507155003 72 152 3.0 5.0 0.00 0.00 0.00 43 1018.3
20260507154503 73 135 1.0 3.0 0.00 0.00 0.00 43 1018.4
20260507154003 73 0 0.0 3.0 0.00 0.00 0.00 42 1018.5